Vertical_Velocity
-4 -5 -5 -4 -3 -2 -1 -1 -0 0 0 -0 -1 -1 -1 -0 -0 -1 -2 -2 -2 -3 -3 -3 -3 -3 -3 -2 -1 -1 -0 -0 -0 0 0 1 1 1 0 -0 -1 -1 -1 -1 -1 -1 -1 -1 -1 -1 -1 -0 -0 0 0 1 1 0 -0 -1 -1 -1 -1 -2 -2 -2 -1 -1 -1
-2 -4 -4 -4 -2 -1 0 1 1 0 -0 -1 -0 0 1 1 0 -0 -1 -1 -2 -2 -3 -3 -3 -3 -2 -2 -1 -0 0 0 0 0 0 1 1 1 0 -0 -1 -1 -1 -1 -1 -2 -2 -2 -2 -1 -1 -1 -0 0 0 1 0 -0 -1 -1 -1 -1 -1 -2 -1 -1 0 0 -0
0 -2 -3 -2 -1 0 1 0 -0 -0 -0 -0 0 1 2 1 1 0 -0 -0 -0 -1 -2 -2 -3 -2 -2 -2 -1 -0 1 1 1 1 1 1 1 1 1 0 -0 -0 -1 -1 -2 -2 -2 -2 -1 -1 -1 -1 -0 0 1 0 0 0 -0 -1 -1 -1 -1 -1 -0 1 1 1 1
1 0 -1 -1 0 1 1 -0 -0 -0 0 1 1 2 1 1 0 -0 -0 0 -0 -0 -1 -2 -2 -2 -1 -1 -1 -0 1 1 1 1 1 2 2 1 1 1 0 -0 -1 -1 -1 -2 -2 -1 -1 -1 -0 -0 0 1 1 1 1 1 1 1 0 -0 -1 -1 1 1 1 1 2
3 2 1 0 1 1 1 0 0 1 1 1 2 2 1 0 0 -0 -0 -0 -1 -1 -1 -0 -0 -0 -1 -0 -0 0 1 1 2 2 2 1 1 1 1 1 1 -0 -1 -1 -1 -1 -1 -1 -0 -0 -0 0 1 1 1 1 1 1 1 2 2 2 2 1 2 2 1 1 2
4 3 2 0 -0 0 1 1 1 1 1 1 1 1 1 0 1 0 -0 -1 -1 -0 0 1 1 1 0 0 0 0 1 1 1 1 1 1 1 1 1 1 1 0 -0 -1 -1 -1 -0 -0 -0 -0 -0 0 0 1 1 1 1 1 2 2 3 3 4 4 4 3 3 2 3
4 4 3 0 -0 0 1 2 2 2 2 1 1 1 1 1 1 1 0 -0 -0 1 1 2 2 1 1 1 1 1 1 1 1 1 1 1 1 2 2 1 1 1 0 -0 -0 -1 -1 -0 -0 -0 -1 -0 0 1 1 1 1 2 2 3 3 3 4 4 4 4 4 4 4
4 4 3 1 0 1 1 2 3 2 2 1 1 1 1 2 3 2 2 1 1 1 1 2 2 2 2 1 1 1 1 1 1 1 1 0 0 1 1 1 1 1 0 -0 -0 -1 -1 -1 -1 -1 -1 -0 1 1 1 1 1 1 2 3 3 3 3 3 4 4 4 4 4
2 2 2 1 1 1 1 2 2 2 1 1 1 1 3 4 4 4 3 2 1 1 2 2 2 2 2 1 1 1 1 1 1 1 1 1 1 0 0 0 0 0 -0 -0 -0 -1 -2 -2 -2 -1 -0 1 1 1 1 1 1 1 1 2 3 3 3 3 3 3 3 3 3
-0 1 2 3 2 1 1 1 1 0 0 0 1 2 4 5 5 5 4 2 2 2 2 2 2 2 1 1 1 1 0 0 0 0 1 1 1 0 -0 -0 0 0 1 1 0 -0 -1 -1 -1 -1 -0 1 1 1 1 1 1 1 1 1 3 3 3 3 4 4 3 3 2
-1 1 3 4 2 1 0 -1 -1 -1 -0 0 2 4 5 6 5 5 4 3 2 2 2 1 2 1 1 0 0 0 -0 -0 -0 -0 -0 -0 -0 -0 -0 -0 0 1 1 2 1 1 0 -0 0 0 1 1 1 1 1 1 1 1 0 1 2 3 3 3 4 4 4 3 2
-2 -3 -2 0 1 2 1 -1 -2 -2 -0 2 4 5 6 5 4 4 3 3 2 1 1 0 1 0 -0 -0 -0 -0 -0 -1 -1 -1 -1 -1 -0 -0 -0 -0 -0 1 1 2 2 2 1 1 1 2 2 2 2 2 2 1 1 1 1 1 2 2 2 3 4 5 4 3 2
-4 -8 -9 -5 -0 2 2 -0 -2 -1 2 4 5 6 5 4 3 3 3 2 1 1 -0 -1 -1 -1 -1 -1 -1 -1 -1 -1 -1 -1 -1 -0 -0 0 0 0 0 1 1 1 2 2 2 1 1 2 3 3 3 2 2 1 1 1 1 1 1 1 1 2 3 3 3 2 1
-0 -5 -7 -4 0 2 2 -1 -3 -1 2 4 4 4 3 2 2 2 3 2 1 0 -1 -2 -2 -2 -2 -1 -1 -1 -1 -1 -1 -1 -0 -0 0 0 -0 -0 0 1 1 1 2 1 1 1 2 2 3 3 2 2 2 2 1 1 1 1 1 1 1 1 2 2 2 1 0
7 4 2 1 1 1 -1 -5 -7 -6 -4 -1 0 1 2 2 3 3 3 2 1 -0 -1 -2 -3 -3 -2 -2 -1 -1 -1 -1 -0 -0 -0 -0 -0 -1 -1 -0 -0 0 1 1 1 1 1 2 2 2 2 2 2 2 2 2 2 2 2 2 1 1 1 1 2 2 2 2 1
12 10 7 4 2 -0 -3 -7 -9 -10 -8 -4 -1 2 3 3 3 3 2 1 -1 -2 -3 -3 -3 -3 -3 -2 -2 -1 -1 -1 -1 -0 -0 -1 -2 -2 -1 -1 -1 -0 0 1 1 1 1 1 1 1 1 1 2 2 2 2 2 2 2 2 2 2 2 2 2 2 2 2 2
10 10 9 7 5 2 -2 -7 -10 -9 -7 -1 2 3 2 2 1 1 1 -0 -3 -4 -5 -5 -4 -4 -3 -3 -2 -1 -1 -1 -1 -0 -0 -0 -2 -2 -1 -1 -0 1 2 3 2 1 -0 -1 -1 -1 -0 1 1 1 2 2 2 2 2 2 2 2 2 2 2 1 1 1 1
8 8 9 9 7 2 -4 -9 -9 -6 -2 2 2 1 -0 -1 0 0 -0 -2 -3 -5 -6 -6 -6 -4 -3 -3 -2 -1 -1 -1 -1 -0 1 1 -1 -2 -1 1 3 4 4 3 2 1 -0 -1 -1 -1 -1 -0 0 1 1 1 1 1 1 1 1 1 1 1 1 1 1 0 0
7 8 9 9 5 -1 -7 -10 -7 -3 1 1 -2 -3 -3 -1 0 0 -1 -3 -4 -4 -5 -5 -5 -5 -4 -3 -2 -2 -2 -1 -1 -0 1 3 0 -1 -1 2 4 4 3 1 -1 -2 -2 1 3 3 1 -1 -0 0 1 1 1 1 -0 -0 -0 -0 -1 -1 -0 -0 0 -0 0
7 7 8 8 1 -5 -9 -9 -4 -2 -2 -4 -4 -4 -2 -0 1 0 -1 -3 -3 -3 -3 -3 -4 -4 -4 -3 -3 -2 -2 -2 -2 -1 1 4 1 -0 -0 2 3 3 1 -2 -2 -3 -2 1 4 4 2 -1 -1 -0 1 1 1 0 -0 -1 -1 -1 -2 -2 -2 -2 -1 -1 1
7 7 6 4 -3 -8 -9 -7 -6 -5 -6 -6 -4 -2 -0 1 1 -0 -1 -2 -2 -2 -2 -2 -2 -3 -3 -3 -2 -2 -1 -2 -1 -1 1 4 2 1 1 3 4 4 4 4 6 5 3 0 1 2 1 1 -0 -0 0 1 1 0 -0 -1 -0 -0 -0 -0 -1 -1 -1 -0 1
7 6 3 -2 -7 -8 -8 -7 -7 -7 -6 -4 -3 -1 0 1 0 -0 -1 -2 -2 -2 -2 -2 -2 -2 -2 -2 -2 -1 -1 -1 -1 -0 1 2 1 0 0 1 2 3 4 5 5 4 1 -0 0 1 2 2 0 -1 -1 0 -0 -0 -1 -1 0 1 2 3 3 2 2 2 2
8 4 -1 -6 -8 -8 -8 -7 -6 -6 -4 -3 -1 -0 0 0 -0 -1 -1 -1 -1 -1 -1 -1 -1 -1 -1 -1 -1 -1 -1 -1 0 1 1 1 -0 1 3 2 2 2 1 -0 -1 -1 -0 1 2 4 4 5 3 -0 -2 -1 -0 -0 -1 -0 1 2 2 3 4 4 4 4 4
5 0 -4 -7 -8 -7 -7 -6 -5 -4 -2 -2 -1 -0 -0 -0 -1 -1 -1 -1 -0 -0 -0 -1 -1 -1 -1 -1 -0 -0 -1 -1 -0 1 1 -0 0 3 5 5 4 1 -1 -4 -3 0 3 4 4 5 6 7 6 3 0 -1 -0 -0 -0 -0 0 1 2 2 3 3 3 3 3
0 -4 -6 -8 -7 -6 -5 -4 -3 -2 -1 -1 -1 -0 -0 -0 -1 -1 -0 0 1 0 -0 -0 -1 -1 -0 -0 -0 -0 -0 -1 -1 -1 -0 -0 3 4 5 4 2 1 -1 -3 -2 0 3 4 4 4 5 6 6 4 2 1 -0 -0 1 2 2 2 2 3 3 3 4 3 2
-4 -6 -7 -6 -6 -5 -4 -2 -1 -1 -1 -1 -1 -0 -0 -0 -0 0 0 1 1 1 0 -0 -0 -0 -0 -0 -0 0 0 -1 -2 -1 -0 1 5 5 4 2 1 0 0 0 -1 -2 -1 0 2 3 3 3 3 4 3 2 2 1 2 2 3 3 3 2 2 3 3 3 2
-4 -4 -4 -4 -4 -3 -2 -1 -0 -0 -0 -0 0 0 1 1 1 1 1 1 1 1 -0 -1 -1 -1 -1 -1 -2 -1 0 -0 -1 -1 -0 1 3 3 2 -0 0 2 2 2 -1 -3 -4 -4 -1 1 1 0 0 1 2 2 2 1 1 2 2 2 2 3 3 3 2 2 2
-1 -2 -2 -2 -2 -1 -0 1 1 1 1 1 1 1 1 1 0 0 0 1 1 0 -0 -1 -1 -1 -1 -2 -2 -1 0 2 2 2 2 2 1 -0 -2 -3 -0 4 6 2 -1 -3 -4 -6 -3 -1 1 0 -0 0 1 1 1 1 1 0 1 1 1 2 3 3 2 2 1
2 1 -0 -1 -1 0 1 2 2 2 3 2 2 1 1 0 -0 -0 -0 0 0 0 -0 -0 -2 -2 -2 -2 -3 -2 -1 2 5 6 7 7 4 1 -1 -3 -1 4 8 4 -1 -3 -4 -5 -4 -3 -1 -0 0 1 1 1 0 -0 -0 -1 -1 -1 -1 0 1 2 1 1 0
3 1 -0 -1 0 1 2 4 4 4 3 2 1 1 0 -0 -1 -1 -1 -1 -0 0 1 -0 -1 -1 -1 -1 -1 -2 -2 -2 2 5 6 7 8 6 4 1 -0 4 9 10 2 -2 -3 -5 -5 -4 -2 -1 -0 0 0 0 -0 -0 -0 -1 -2 -2 -2 -2 -1 -0 0 -0 -0
2 1 0 1 2 3 4 4 4 3 2 1 1 1 0 -0 -1 -2 -2 -1 -0 1 1 -0 -0 0 1 1 2 1 0 -1 -0 1 2 4 4 5 5 4 2 4 9 15 7 1 -3 -4 -4 -3 -2 -1 -1 -0 -0 -0 -0 -0 -0 -0 -1 -2 -2 -2 -1 -1 -0 -0 -1
1 1 3 4 5 4 4 3 3 2 2 1 1 1 1 -0 -1 -1 -1 -0 0 1 1 -0 -0 1 2 2 2 3 3 3 2 1 1 2 2 2 1 2 2 3 6 14 10 4 -2 -5 -6 -4 -3 -2 -1 -1 -1 -0 -0 0 0 0 0 0 0 0 0 0 0 -0 -0
2 4 6 6 5 4 2 1 2 2 3 3 2 1 0 -1 -1 -0 0 0 1 1 0 -0 0 1 2 1 1 1 2 2 2 1 1 1 1 0 -0 -0 -0 0 2 9 12 8 1 -5 -8 -7 -5 -3 -1 -1 -1 -1 -0 -0 0 1 1 1 1 1 1 1 0 0 -0
4 5 5 5 4 3 2 1 2 2 3 3 2 1 -0 -1 -2 -1 -0 1 1 1 1 0 1 0 0 0 -0 -0 -0 0 0 0 0 -0 0 0 0 -0 -0 -0 0 2 8 9 6 -1 -6 -7 -7 -5 -3 -2 -1 -1 -1 -1 -0 1 1 2 2 2 1 1 1 0 0
4 4 3 3 3 2 2 2 2 2 2 2 1 1 0 -0 -1 -1 -0 1 1 1 1 0 -0 -0 0 -0 -1 -1 -1 -1 -0 -0 -0 -1 -1 -0 0 1 1 1 0 -0 2 6 8 6 -1 -5 -7 -6 -4 -3 -2 -1 -1 -1 -0 0 1 2 2 2 2 1 1 0 0
3 3 2 2 2 2 2 2 1 1 0 0 0 1 1 1 0 -0 -0 -0 1 1 1 0 -0 -0 -0 -1 -2 -2 -2 -1 0 0 -0 -1 -1 -0 -0 0 0 1 0 -1 -1 1 5 10 2 -3 -5 -6 -5 -3 -2 -1 -1 -0 -0 -0 1 1 2 2 1 1 1 1 0
3 3 2 2 2 2 2 1 0 -1 -1 -1 0 0 1 1 1 1 1 0 -0 -0 -0 -0 -0 -0 -0 -0 0 0 1 1 2 1 -0 -1 -1 -1 -1 -1 -1 -1 -1 -2 -2 -1 1 7 3 -2 -5 -6 -5 -3 -2 -0 -0 -0 -0 -0 1 1 1 1 1 1 1 1 0
3 3 3 2 2 1 1 0 -0 -1 -2 -1 0 1 1 1 4 4 4 4 1 -1 -1 -1 -1 -0 0 1 2 2 1 1 1 1 -0 -1 -2 -3 -3 -4 -3 -3 -4 -4 -4 -2 -0 2 1 -2 -5 -7 -6 -4 -2 -0 -0 -0 -0 0 1 1 1 0 1 1 1 1 0
3 3 3 2 1 1 0 -0 -0 -1 -1 -1 1 2 2 2 6 6 5 5 2 1 -1 -1 -1 -1 -1 -0 0 0 -0 0 1 0 -0 -1 -3 -4 -4 -4 -3 -3 -3 -3 -3 -1 -0 0 1 -2 -5 -7 -6 -5 -3 -1 -1 -0 0 1 2 2 2 1 1 1 1 1 0
1 1 1 1 1 0 -0 -1 -1 -0 -0 -1 1 2 3 2 5 5 4 3 2 1 0 -1 -1 -2 -2 -2 -1 -1 -1 -1 -0 -0 -0 -1 -2 -3 -2 -2 -1 -1 -1 -2 -2 -1 0 1 2 -0 -4 -6 -6 -5 -4 -2 -2 -0 1 2 2 3 3 3 2 2 1 1 1
1 1 1 1 0 -0 -1 -1 -1 -0 1 -0 1 2 3 2 5 4 3 2 1 1 -1 -3 -3 -3 -2 -2 -1 -1 -0 -1 -0 -0 -0 -0 -0 -0 -1 -1 -1 -1 -1 -1 -1 -0 0 1 2 1 -2 -4 -6 -6 -4 -3 -2 -1 0 2 2 3 3 3 3 2 2 2 2
Height
1455 1455 1455 1455 1455 1455 1455 1455 1455 1455 1455 1455 1455 1455 1455 1455 1455 1455 1454 1454 1454 1455 1455 1455 1455 1455 1455 1455 1455 1454 1454 1453 1453 1453 1453 1453 1452 1452 1452 1452 1452 1452 1452 1452 1452 1452 1452 1452 1452 1452 1452 1452 1452 1452 1452 1452 1452 1451 1451 1451 1451 1451 1451 1451 1452 1452 1452 1452 1452
1454 1454 1454 1453 1453 1453 1453 1453 1453 1453 1453 1453 1453 1453 1453 1453 1453 1453 1453 1453 1453 1453 1453 1453 1453 1453 1453 1453 1453 1453 1452 1452 1452 1451 1451 1451 1451 1451 1450 1450 1450 1450 1450 1450 1450 1451 1451 1451 1451 1451 1450 1450 1450 1450 1450 1450 1450 1450 1450 1450 1450 1450 1450 1450 1450 1450 1450 1450 1450
1453 1452 1452 1452 1452 1452 1452 1452 1452 1452 1452 1452 1452 1452 1452 1452 1452 1452 1452 1451 1451 1451 1451 1451 1451 1451 1451 1451 1451 1451 1451 1450 1450 1450 1450 1449 1449 1449 1449 1449 1449 1449 1449 1449 1449 1449 1449 1449 1449 1449 1449 1449 1449 1449 1448 1448 1448 1448 1448 1448 1448 1448 1448 1448 1448 1448 1448 1448 1448
1451 1451 1451 1451 1451 1451 1451 1451 1451 1451 1451 1451 1451 1451 1451 1450 1450 1450 1450 1450 1450 1449 1449 1449 1449 1449 1449 1449 1449 1449 1449 1449 1449 1448 1448 1448 1448 1448 1447 1447 1447 1447 1447 1447 1447 1447 1447 1447 1447 1447 1447 1447 1447 1447 1447 1447 1447 1447 1447 1447 1447 1447 1447 1447 1447 1447 1447 1447 1447
1450 1450 1449 1449 1450 1450 1450 1450 1450 1450 1450 1450 1450 1449 1449 1449 1449 1449 1448 1448 1448 1448 1448 1448 1448 1448 1448 1448 1448 1448 1448 1448 1447 1447 1447 1446 1446 1446 1446 1445 1445 1445 1445 1445 1445 1445 1446 1446 1446 1446 1446 1445 1445 1445 1445 1445 1445 1445 1445 1445 1445 1445 1445 1445 1445 1445 1445 1445 1445
1449 1448 1448 1448 1448 1448 1448 1448 1448 1448 1448 1448 1448 1448 1448 1448 1448 1448 1447 1447 1447 1447 1447 1447 1446 1446 1446 1446 1446 1446 1446 1446 1445 1445 1445 1444 1444 1444 1444 1443 1443 1443 1443 1443 1443 1443 1443 1443 1444 1444 1444 1444 1444 1443 1443 1443 1443 1443 1443 1443 1443 1443 1444 1444 1443 1443 1443 1443 1443
1447 1447 1447 1447 1447 1447 1447 1447 1447 1447 1447 1447 1447 1447 1447 1447 1446 1446 1446 1446 1445 1445 1445 1445 1445 1445 1444 1444 1444 1444 1444 1444 1443 1443 1443 1443 1442 1442 1442 1442 1441 1441 1441 1441 1441 1441 1441 1442 1442 1442 1442 1442 1442 1442 1442 1442 1442 1442 1442 1442 1442 1442 1442 1442 1442 1442 1442 1442 1442
1446 1446 1445 1445 1445 1446 1446 1446 1446 1446 1446 1446 1446 1446 1446 1445 1445 1444 1444 1444 1444 1444 1444 1443 1443 1443 1443 1443 1443 1442 1442 1442 1442 1441 1441 1440 1440 1440 1440 1439 1439 1439 1439 1439 1439 1439 1439 1439 1439 1439 1440 1440 1440 1440 1440 1440 1440 1440 1440 1440 1440 1440 1440 1440 1440 1440 1440 1440 1440
1444 1444 1444 1444 1444 1444 1444 1445 1445 1445 1445 1445 1445 1444 1444 1444 1443 1443 1443 1442 1442 1442 1442 1442 1442 1441 1441 1441 1440 1440 1440 1439 1439 1439 1438 1438 1438 1438 1437 1437 1437 1437 1437 1437 1437 1437 1437 1437 1437 1437 1438 1438 1438 1438 1438 1438 1438 1438 1438 1438 1438 1438 1438 1438 1438 1438 1438 1438 1438
1442 1442 1442 1442 1442 1443 1443 1443 1443 1444 1443 1443 1443 1443 1443 1442 1442 1441 1441 1441 1440 1440 1440 1440 1439 1439 1439 1438 1438 1438 1437 1437 1437 1436 1436 1435 1435 1435 1434 1434 1434 1434 1434 1434 1434 1434 1434 1434 1434 1435 1435 1435 1435 1435 1435 1435 1435 1435 1436 1436 1436 1436 1436 1436 1436 1436 1436 1436 1436
1439 1440 1440 1441 1441 1441 1441 1442 1442 1442 1442 1442 1442 1442 1441 1441 1440 1440 1439 1439 1439 1438 1438 1438 1438 1437 1437 1436 1436 1435 1435 1434 1434 1433 1433 1433 1432 1432 1432 1431 1431 1431 1431 1431 1431 1431 1431 1431 1432 1432 1432 1432 1432 1433 1433 1433 1433 1433 1433 1433 1433 1433 1434 1434 1434 1434 1434 1434 1434
1436 1438 1439 1439 1439 1439 1440 1440 1441 1441 1441 1441 1441 1440 1440 1439 1439 1438 1438 1437 1437 1437 1436 1436 1435 1435 1434 1434 1433 1433 1432 1431 1431 1430 1430 1429 1429 1429 1428 1428 1428 1428 1428 1428 1428 1428 1428 1428 1428 1429 1429 1429 1429 1430 1430 1430 1430 1430 1431 1431 1431 1431 1431 1431 1432 1432 1431 1431 1431
1433 1435 1437 1438 1438 1438 1438 1438 1439 1439 1440 1439 1439 1439 1438 1438 1437 1437 1436 1436 1435 1435 1434 1433 1433 1433 1432 1432 1431 1430 1430 1429 1428 1428 1427 1427 1426 1426 1426 1425 1425 1425 1425 1425 1425 1425 1425 1425 1426 1426 1426 1426 1427 1427 1427 1427 1427 1428 1428 1428 1428 1428 1428 1429 1429 1429 1429 1429 1429
1430 1432 1433 1435 1435 1435 1435 1436 1437 1438 1438 1438 1438 1437 1437 1436 1436 1435 1434 1434 1433 1433 1432 1432 1431 1431 1430 1430 1429 1428 1428 1427 1427 1426 1426 1425 1424 1424 1424 1423 1423 1423 1423 1423 1423 1423 1423 1423 1423 1423 1423 1423 1423 1424 1424 1424 1424 1424 1425 1425 1425 1425 1425 1426 1426 1426 1426 1426 1426
1428 1429 1430 1431 1432 1432 1432 1433 1434 1435 1436 1436 1436 1436 1435 1435 1434 1433 1433 1432 1432 1431 1431 1430 1429 1429 1428 1428 1428 1427 1426 1426 1425 1425 1424 1423 1423 1423 1422 1422 1422 1422 1422 1422 1421 1421 1421 1421 1421 1421 1421 1421 1421 1421 1422 1422 1422 1422 1422 1422 1422 1422 1423 1423 1423 1423 1423 1423 1424
1426 1426 1427 1427 1428 1428 1429 1431 1432 1433 1434 1435 1435 1434 1433 1433 1433 1432 1431 1431 1430 1430 1429 1429 1428 1428 1428 1427 1427 1426 1425 1425 1424 1423 1423 1423 1422 1422 1421 1421 1421 1421 1421 1421 1420 1420 1420 1419 1419 1419 1419 1419 1419 1419 1419 1420 1420 1420 1420 1420 1420 1420 1420 1420 1420 1420 1421 1421 1421
1425 1424 1424 1424 1425 1426 1427 1429 1430 1432 1433 1433 1433 1432 1432 1431 1431 1431 1430 1429 1429 1428 1428 1428 1428 1427 1427 1426 1426 1425 1424 1424 1423 1423 1422 1422 1421 1421 1421 1421 1420 1420 1420 1420 1420 1419 1419 1418 1418 1418 1418 1418 1418 1418 1418 1418 1418 1418 1418 1418 1418 1418 1418 1418 1418 1418 1418 1418 1419
1423 1422 1422 1422 1422 1423 1424 1427 1428 1430 1431 1431 1431 1431 1430 1430 1430 1429 1428 1428 1428 1427 1427 1427 1426 1426 1426 1425 1424 1424 1423 1423 1422 1422 1422 1422 1421 1420 1420 1420 1420 1420 1420 1419 1419 1419 1418 1418 1418 1417 1417 1417 1417 1417 1417 1417 1416 1416 1416 1416 1416 1416 1416 1416 1416 1416 1417 1417 1417
1420 1420 1420 1419 1419 1420 1422 1425 1427 1428 1428 1429 1429 1429 1429 1429 1428 1428 1427 1426 1426 1426 1425 1425 1425 1424 1424 1424 1423 1423 1422 1422 1422 1422 1422 1421 1421 1420 1420 1420 1420 1420 1419 1419 1418 1418 1418 1418 1417 1417 1417 1416 1416 1416 1416 1416 1415 1415 1415 1415 1415 1415 1415 1415 1415 1415 1415 1415 1416
1418 1418 1417 1417 1417 1418 1420 1423 1424 1426 1426 1427 1427 1427 1427 1427 1427 1426 1425 1425 1424 1424 1424 1423 1423 1423 1423 1422 1422 1422 1421 1421 1421 1421 1421 1421 1420 1420 1420 1420 1419 1419 1418 1418 1418 1417 1417 1417 1417 1417 1416 1416 1416 1415 1415 1415 1415 1414 1414 1414 1414 1414 1414 1414 1414 1414 1414 1415 1415
1415 1414 1414 1414 1415 1417 1419 1421 1422 1423 1424 1425 1425 1426 1425 1425 1424 1424 1423 1423 1423 1423 1422 1422 1422 1422 1421 1421 1421 1421 1420 1420 1420 1420 1421 1421 1420 1420 1419 1419 1419 1418 1418 1418 1417 1417 1417 1417 1416 1416 1416 1415 1415 1415 1414 1414 1414 1414 1414 1414 1414 1414 1414 1414 1414 1414 1414 1414 1414
1412 1411 1411 1412 1413 1415 1418 1419 1421 1422 1423 1423 1424 1424 1423 1423 1423 1422 1422 1422 1421 1421 1421 1421 1421 1420 1420 1420 1420 1420 1419 1419 1419 1420 1420 1420 1420 1419 1419 1419 1418 1418 1418 1417 1417 1417 1416 1416 1416 1415 1415 1415 1415 1414 1414 1414 1414 1414 1414 1414 1414 1414 1414 1414 1414 1413 1413 1413 1413
1409 1409 1409 1411 1413 1415 1417 1418 1419 1421 1421 1422 1422 1422 1422 1421 1421 1420 1420 1420 1420 1420 1420 1419 1419 1419 1419 1419 1419 1419 1418 1418 1419 1419 1419 1419 1419 1419 1419 1418 1418 1417 1417 1417 1416 1416 1416 1415 1415 1415 1414 1414 1414 1414 1414 1413 1413 1413 1414 1414 1414 1414 1414 1414 1413 1413 1413 1413 1413
1407 1408 1409 1411 1413 1414 1416 1417 1418 1419 1420 1420 1420 1420 1419 1419 1419 1419 1419 1419 1419 1418 1418 1418 1418 1418 1418 1418 1418 1418 1418 1418 1418 1418 1419 1419 1419 1418 1418 1418 1417 1417 1416 1416 1416 1415 1415 1415 1414 1414 1414 1413 1413 1413 1413 1413 1413 1413 1413 1413 1413 1413 1413 1413 1413 1413 1412 1412 1412
1406 1408 1409 1411 1412 1414 1415 1416 1417 1418 1418 1418 1418 1418 1418 1418 1418 1418 1418 1418 1418 1418 1418 1418 1418 1417 1417 1417 1417 1417 1417 1417 1418 1418 1418 1418 1418 1418 1418 1417 1417 1416 1416 1416 1415 1415 1414 1414 1414 1414 1413 1413 1413 1413 1413 1413 1413 1413 1413 1413 1413 1413 1413 1412 1412 1412 1412 1412 1411
1407 1408 1409 1411 1412 1413 1414 1415 1415 1416 1416 1416 1416 1416 1416 1416 1416 1416 1416 1416 1417 1416 1416 1417 1417 1417 1417 1417 1417 1417 1417 1417 1417 1417 1418 1418 1418 1417 1417 1417 1417 1416 1416 1415 1415 1414 1414 1414 1414 1413 1413 1413 1413 1413 1413 1413 1413 1413 1413 1412 1412 1412 1412 1412 1411 1411 1411 1411 1410
1408 1408 1409 1410 1411 1412 1413 1413 1414 1414 1414 1414 1414 1414 1414 1415 1415 1415 1415 1415 1415 1415 1415 1415 1416 1416 1416 1416 1416 1416 1416 1417 1417 1417 1417 1418 1417 1417 1416 1417 1417 1416 1415 1415 1414 1414 1414 1414 1413 1413 1413 1412 1412 1412 1412 1412 1412 1412 1412 1412 1411 1411 1411 1411 1411 1410 1410 1410 1409
1407 1408 1409 1409 1410 1411 1411 1412 1412 1413 1413 1413 1413 1413 1413 1413 1414 1414 1414 1414 1414 1414 1414 1415 1415 1415 1415 1415 1416 1416 1416 1417 1417 1417 1417 1417 1417 1416 1416 1417 1417 1416 1415 1414 1414 1413 1413 1413 1413 1413 1412 1412 1412 1412 1411 1411 1411 1411 1411 1411 1411 1410 1410 1410 1410 1409 1409 1409 1408
1407 1407 1408 1409 1409 1410 1410 1411 1411 1411 1412 1412 1412 1412 1412 1413 1413 1413 1413 1413 1413 1414 1414 1414 1414 1414 1415 1415 1415 1416 1416 1417 1417 1416 1416 1416 1416 1416 1416 1416 1416 1416 1416 1414 1413 1413 1413 1413 1413 1413 1412 1412 1411 1411 1411 1411 1411 1411 1410 1410 1410 1410 1410 1409 1409 1408 1408 1408 1408
1407 1407 1408 1408 1409 1409 1409 1409 1410 1410 1410 1410 1411 1411 1411 1411 1412 1412 1412 1413 1413 1413 1413 1413 1414 1414 1415 1415 1415 1416 1416 1416 1416 1416 1416 1416 1415 1415 1415 1415 1416 1416 1415 1414 1413 1412 1412 1412 1412 1412 1412 1412 1411 1411 1411 1411 1410 1410 1410 1410 1409 1409 1409 1409 1408 1408 1408 1407 1407
1407 1408 1408 1408 1408 1408 1408 1409 1409 1409 1409 1409 1409 1410 1410 1410 1411 1411 1411 1412 1412 1413 1413 1413 1414 1414 1414 1415 1415 1415 1416 1416 1416 1416 1416 1415 1415 1415 1415 1415 1415 1415 1415 1414 1413 1412 1411 1411 1412 1412 1412 1411 1411 1411 1410 1410 1410 1410 1409 1409 1409 1408 1408 1408 1408 1407 1407 1406 1406
1408 1408 1408 1408 1408 1408 1408 1408 1408 1408 1408 1408 1409 1409 1409 1409 1410 1410 1411 1411 1412 1412 1412 1413 1413 1414 1414 1414 1415 1415 1415 1415 1415 1415 1415 1415 1414 1414 1414 1414 1414 1414 1414 1414 1413 1411 1410 1411 1411 1411 1411 1411 1411 1410 1410 1410 1409 1409 1409 1408 1408 1408 1407 1407 1406 1406 1405 1405 1405
1409 1409 1409 1408 1408 1408 1408 1408 1408 1408 1408 1408 1408 1408 1408 1409 1409 1410 1410 1411 1411 1411 1412 1413 1413 1413 1414 1414 1414 1414 1414 1414 1414 1414 1414 1414 1413 1413 1413 1413 1413 1413 1413 1413 1413 1411 1410 1410 1410 1411 1411 1411 1410 1410 1410 1409 1409 1408 1408 1408 1408 1407 1407 1406 1406 1405 1404 1404 1404
1409 1409 1409 1408 1408 1408 1408 1408 1408 1408 1408 1408 1408 1408 1408 1408 1408 1409 1410 1410 1411 1411 1412 1412 1412 1413 1413 1413 1414 1414 1414 1413 1413 1413 1413 1413 1413 1413 1413 1413 1413 1413 1413 1413 1413 1412 1410 1409 1409 1409 1410 1410 1410 1410 1409 1409 1408 1408 1408 1407 1407 1406 1406 1405 1405 1404 1403 1403 1403
1409 1409 1408 1408 1408 1408 1408 1408 1408 1408 1408 1408 1408 1408 1408 1408 1408 1409 1409 1410 1411 1411 1411 1412 1412 1412 1413 1413 1413 1413 1413 1413 1413 1413 1413 1413 1412 1412 1412 1412 1412 1412 1412 1412 1412 1412 1411 1409 1408 1408 1408 1409 1409 1409 1409 1408 1408 1407 1407 1406 1406 1405 1405 1404 1403 1403 1403 1402 1402
1409 1409 1408 1408 1408 1408 1408 1408 1408 1408 1408 1408 1408 1409 1409 1409 1409 1409 1409 1410 1410 1411 1411 1411 1412 1412 1412 1413 1413 1413 1413 1413 1413 1412 1412 1412 1412 1412 1412 1412 1411 1411 1411 1411 1411 1411 1411 1410 1408 1407 1407 1408 1408 1408 1408 1408 1407 1406 1406 1405 1404 1404 1403 1403 1402 1402 1401 1401 1401
1409 1409 1408 1408 1408 1408 1408 1408 1408 1408 1408 1409 1409 1409 1409 1409 1409 1409 1409 1409 1410 1411 1411 1411 1412 1412 1412 1412 1412 1412 1412 1412 1412 1412 1411 1411 1411 1411 1411 1411 1411 1411 1411 1411 1411 1411 1411 1410 1408 1407 1406 1406 1407 1407 1407 1407 1406 1405 1404 1404 1403 1402 1402 1401 1401 1400 1400 1400 1399
1410 1409 1409 1409 1409 1408 1408 1408 1408 1409 1409 1409 1409 1409 1409 1409 1409 1409 1409 1409 1410 1410 1411 1411 1411 1412 1412 1412 1412 1412 1412 1412 1412 1411 1411 1411 1411 1411 1411 1411 1411 1411 1410 1410 1410 1410 1410 1410 1408 1407 1405 1405 1405 1405 1405 1405 1405 1404 1403 1403 1402 1401 1400 1400 1399 1399 1398 1398 1398
1410 1410 1410 1409 1409 1409 1409 1409 1409 1409 1409 1410 1410 1410 1409 1409 1409 1409 1409 1409 1409 1410 1410 1411 1411 1411 1411 1412 1411 1411 1411 1411 1411 1411 1411 1411 1411 1411 1411 1411 1411 1410 1410 1410 1410 1410 1409 1409 1408 1406 1405 1404 1404 1404 1404 1404 1403 1403 1402 1401 1400 1400 1399 1398 1398 1398 1397 1397 1396
1410 1410 1410 1409 1409 1409 1409 1409 1409 1410 1410 1410 1410 1410 1409 1409 1409 1409 1409 1409 1409 1409 1410 1410 1411 1411 1411 1411 1411 1411 1411 1411 1411 1411 1411 1411 1411 1411 1411 1410 1410 1410 1409 1409 1409 1408 1408 1408 1407 1406 1404 1403 1403 1403 1403 1402 1402 1401 1401 1400 1399 1398 1398 1398 1397 1397 1396 1396 1395
1410 1410 1409 1409 1409 1409 1410 1410 1410 1410 1410 1410 1410 1410 1410 1409 1409 1409 1409 1409 1409 1409 1409 1410 1410 1411 1411 1411 1411 1411 1411 1411 1411 1410 1410 1410 1410 1410 1410 1410 1409 1409 1408 1408 1408 1407 1407 1407 1406 1405 1404 1403 1402 1402 1401 1401 1401 1400 1399 1399 1398 1398 1398 1397 1397 1396 1396 1395 1394